Вернуться в каталог

CZ-4C R/B

АктивенPO
NORAD 47304·ROCKET BODY·🇨🇳 China

Запущен Dec 27, 2020 с Jiuquan Satellite Launch Center

Loading…

Ближайшие Пролёты (ближайшие 24 часа)

TLE

СвежийSource: Space-Track

Эпоха: Sep 14, 2026, 21:41 UTC

1 47304U 20103C   26257.90385837  .00000864  00000-0  67464-4 0  9998
2 47304  98.3516 301.5985 0085032  37.5008 323.2105 15.01475942311643

Отслеживайте CZ-4C R/B в реальном времени с AllMySat

Download on the App Store